Weather History for Fort Indiantown Gap, PA

Change the Weather History Date:

Wednesday, May 1, 2013

  Actual Average Record
Temperature  
Mean Temperature 54 °F -  
Max Temperature 72 °F 66 °F 82 °F (2001)
Min Temperature 37 °F 49 °F 37 °F (2013)
Degree Days  
Heating Degree Days 11    
Growing Degree Days 4 (Base 50)    
Moisture  
Dew Point 36 °F    
Average Humidity 54    
Maximum Humidity 99    
Minimum Humidity 22    
Precipitation  
Precipitation 0.00 in - - ()
Sea Level Pressure  
Sea Level Pressure 30.40 in    
Wind  
Wind Speed 3 mph (ENE)    
Max Wind Speed 12 mph    
Max Gust Speed -    
Visibility 10 miles    
Events      
Averages and records for this station are not official NWS values.
T = Trace of Precipitation, MM = Missing Value Source: NWS Daily Summary

Daily Weather History Graph

Daily Weather History Graph

Search for Another Location

Airport:

Trip Planner

Search our weather history database for the weather conditions in past years. The results will help you decide how hot, cold, wet, or windy it might be!

Date:

Astronomy

May. 01, 2013 Rise Set
Actual Time 6:05 AM EDT 8:02 PM EDT
Civil Twilight 5:35 AM EDT 8:31 PM EDT
Nautical Twilight 4:59 AM EDT 9:07 PM EDT
Astronomical Twilight 4:20 AM EDT 9:47 PM EDT
Moon 1:10 AM EDT (5/1) 11:41 AM EDT (5/1)
Length of Visible Light 14h 56m
Length of Day
13h 56m
Waning Gibbous, 59% of the Moon is Illuminated
May 1
Waning Gibbous
May 2
Last Quarter
May 9
New
May 18
First Quarter
May 25
Full

Hourly Weather History & Observations

Time (EDT) Temp. Dew Point Humidity Pressure Visibility Wind Dir Wind Speed Gust Speed Precip Events Conditions
12:55 AM 46.6 °F 40.5 °F 79% 30.34 in 10.0 mi North 3.5 mph - N/A   Clear
1:55 AM 43.9 °F 40.3 °F 87% 30.34 in 10.0 mi Calm Calm - N/A   Clear
2:55 AM 43.3 °F 39.9 °F 88% 30.35 in 10.0 mi Calm Calm - N/A   Clear
3:55 AM 40.5 °F 40.1 °F 99% 30.35 in 10.0 mi Calm Calm - N/A   Clear
4:55 AM 40.1 °F 39.9 °F 99% 30.36 in 10.0 mi Calm Calm - N/A   Clear
5:55 AM 37.8 °F 37.6 °F 99% 30.38 in 10.0 mi Calm Calm - N/A   Clear
6:55 AM 41.7 °F 40.1 °F 94% 30.40 in 10.0 mi Calm Calm - N/A   Clear
7:55 AM 51.6 °F 41.2 °F 68% 30.42 in 10.0 mi Calm Calm - N/A   Clear
8:55 AM 57.0 °F 27.3 °F 32% 30.43 in 10.0 mi ENE 5.8 mph - N/A   Clear
9:55 AM 59.0 °F 29.7 °F 33% 30.43 in 10.0 mi East 8.1 mph - N/A   Clear
10:55 AM 62.1 °F 30.6 °F 31% 30.43 in 10.0 mi Variable 6.9 mph - N/A   Clear
11:55 AM 63.7 °F 31.5 °F 30% 30.43 in 10.0 mi NE 6.9 mph - N/A   Clear
12:55 PM 65.3 °F 31.5 °F 28% 30.42 in 10.0 mi East 3.5 mph - N/A   Clear
1:55 PM 66.9 °F 32.4 °F 28% 30.40 in 10.0 mi ESE 4.6 mph - N/A   Clear
2:55 PM 68.7 °F 32.0 °F 26% 30.39 in 10.0 mi East 6.9 mph - N/A   Clear
3:55 PM 70.2 °F 32.4 °F 25% 30.38 in 10.0 mi SSE 10.4 mph - N/A   Clear
4:55 PM 71.1 °F 30.6 °F 22% 30.39 in 10.0 mi East 11.5 mph - N/A   Clear
5:55 PM 70.5 °F 32.4 °F 24% 30.39 in 10.0 mi East 6.9 mph - N/A   Clear
6:55 PM 68.2 °F 31.8 °F 26% 30.40 in 10.0 mi East 6.9 mph - N/A   Clear
7:55 PM 61.0 °F 36.0 °F 39% 30.40 in 10.0 mi Calm Calm - N/A   Clear
8:55 PM 56.5 °F 38.5 °F 51% 30.43 in 10.0 mi NE 3.5 mph - N/A   Clear
9:55 PM 54.9 °F 40.6 °F 59% 30.45 in 10.0 mi NNE 4.6 mph - N/A   Clear
10:55 PM 52.7 °F 41.4 °F 65% 30.46 in 10.0 mi NNE 4.6 mph - N/A   Clear
11:55 PM 50.5 °F 40.6 °F 69% 30.45 in 10.0 mi NNE 4.6 mph - N/A   Clear